Tracking 32422 objects as of 7-Dec-2025
HD Live streaming from Space Station
objects crossing your sky now

STARLINK-32352

Track STARLINK-32352 now!
10-day predictions
STARLINK-32352 is classified as:


NORAD ID: 61847
Int'l Code: 2024-202C
Perigee: 490.0 km
Apogee: 490.4 km
Inclination: 43.0 °
Period: 94.3 minutes
Semi major axis: 6861 km
RCS: Unknown
Launch date: November 7, 2024
Source: United States (US)
Launch site: AIR FORCE EASTERN TEST RANGE (AFETR)
Your satellite tracking list
Your tracking list is empty




NASA's NSSDC Master Catalog

Two Line Element Set (TLE):
1 61847U 24202C   25340.87605861  .00008407  00000-0  31463-3 0  9990
2 61847  43.0027  30.8501 0000310 239.2470 120.8351 15.27585962 61278
Source of the keplerian elements: AFSPC